Regional Weather Roundup
Issued by NWS

Home | Current Version | Previous Version | Graphics & Text | Print | Product List | Glossary On
Versions: 1 2 3 4 5 6 7 8 9 10 11 12 13 14 15 16 17 18 19 20 21 22 23 24 25 26 27 28 29 30 31 32 33 34 35 36 37 38 39 40 41 42 43 44 45 46 47 48 49 50
000
ASUS43 KMKX 262300
RWRWI

WISCONSIN REGIONAL WEATHER ROUNDUP
NATIONAL WEATHER SERVICE MILWAUKEE/SULLIVAN WI
600 PM CDT FRI AUG 26 2016

NOTE: "FAIR" INDICATES FEW OR NO CLOUDS BELOW 12,000 FEET WITH NO
SIGNIFICANT WEATHER AND/OR OBSTRUCTIONS TO VISIBILITY.

WIZ001-002-006>008-014>016-023>028-270000-
NORTHWEST WISCONSIN

CITY           SKY/WX    TMP DP  RH WIND       PRES   REMARKS
SUPERIOR ARPT  CLOUDY    73  53  49 SW7       30.11S
ASHLAND        PTSUNNY   67  54  63 SE5       30.14F
HAYWARD        CLOUDY    68  51  54 VRB3      30.16S
SIREN          CLOUDY    70  51  51 S6        30.15S
CUMBERLAND     MOSUNNY   66  52  59 SW3       30.16S
RICE LAKE      PTSUNNY   69  53  55 S3        30.17S
CHETEK         NOT AVBL
LADYSMITH      MOSUNNY   69  51  53 CALM      30.18R
EAU CLAIRE     NOT AVBL
MENOMONIE      CLOUDY    70  54  57 S3        30.16S
NEW RICHMOND   MOSUNNY   68  54  60 W3        30.16S
OSCEOLA        PTSUNNY   70  54  56 S5        30.18S
$$

WIZ003>005-009-010-017-018-270000-
NORTH CENTRAL WISCONSIN

CITY           SKY/WX    TMP DP  RH WIND       PRES   REMARKS
MANITOWISH WTR NOT AVBL
ARBOR VITAE    MOSUNNY   67  50  54 W3        30.16S
WOODRUFF       MOSUNNY   67  50  54 W3        30.16S
RHINELANDER    CLOUDY    68  50  52 CALM      30.17S
EAGLE RIVER    MOSUNNY   66  47  49 CALM      30.16S
LAND O LAKES   MOSUNNY   67  47  48 NW3       30.17S
PHILLIPS       CLOUDY    67  52  57 W5        30.16R
TOMAHAWK       CLOUDY    69  50  50 NW5       30.17S
MEDFORD        PTSUNNY   67  51  57 W5        30.16F
MERRILL        PTSUNNY   69  53  56 CALM      30.16F
$$

WIZ029-030-035-036-043>047-270000-
CENTRAL WISCONSIN

CITY           SKY/WX    TMP DP  RH WIND       PRES   REMARKS
WAUSAU         MOSUNNY   69  52  54 W5        30.14S
MOSINEE        MOSUNNY   68  55  64 W5        30.16F
MARSHFIELD     CLOUDY    69  53  56 W3        30.15F
STEVENS POINT  CLOUDY    67  52  57 W3        30.16S
WAUPACA        CLOUDY    72  54  52 W3        30.16R
WAUTOMA        CLOUDY    71  57  61 CALM      30.15S
WISC RAPIDS    CLOUDY    70  55  59 N5        30.16F
CAMP DOUGLAS   NOT AVBL
$$

WIZ011>013-019>022-031-037>040-048>050-270000-
NORTHEAST WISCONSIN

CITY           SKY/WX    TMP DP  RH WIND       PRES   REMARKS
ANTIGO         PTSUNNY   68  51  55 CALM      30.17S
SHAWANO        CLOUDY    73  54  52 CALM      30.14S
OCONTO         NOT AVBL
STURGEON BAY   CLOUDY    71  56  58 SW7       30.14R
GREEN BAY      PTSUNNY   70  60  70 SW3       30.14S
MANITOWOC      NOT AVBL
APPLETON       PTSUNNY   70  52  52 VRB5      30.15R
CLINTONVILLE   CLOUDY    70  52  52 SW5       30.14S
OSHKOSH        CLOUDY    71  57  61 CALM      30.14S
$$

WIZ032>034-041-042-053>061-270000-
SOUTHWEST WISCONSIN

CITY           SKY/WX    TMP DP  RH WIND       PRES   REMARKS
LA CROSSE      CLOUDY    74  58  57 N3        30.13F
SPARTA         CLOUDY    70  58  63 CALM      30.15S
VIROQUA        CLOUDY    69  59  69 CALM      30.16S
BOSCOBEL       CLOUDY    70  62  76 CALM      30.14F
PRAIRIE DU CHI CLOUDY    67  61  81 NE3       30.13F
PLATTEVILLE    MOSUNNY   71  63  77 N3        30.15R
$$

WIZ056-057-062-063-064-067-068-270000-
SOUTH CENTRAL WISCONSIN

CITY           SKY/WX    TMP DP  RH WIND       PRES   REMARKS
REEDSBURG      NOT AVBL
BARABOO/DELLS  CLOUDY    69  57  65 CALM      30.15S
LONE ROCK      NOT AVBL
MINERAL POINT  MOSUNNY   72  61  68 N3        30.16R
MADISON        CLOUDY    72  60  66 VRB5      30.13S
MIDDLETON      CLOUDY    73  60  64 CALM      30.15S
WATERTOWN      PTSUNNY   72  59  64 CALM      30.14S
MONROE         CLOUDY    72  61  68 N3        30.14R
JANESVILLE     PTSUNNY   75  61  60 E8        30.13R
$$

WIZ051-052-058>065-066-070>072-270000-
SOUTHEAST WISCONSIN

CITY           SKY/WX    TMP DP  RH WIND       PRES   REMARKS
MILWAUKEE      CLOUDY    71  56  58 SE8       30.15R
WAUKESHA       SUNNY     72  57  60 CALM      30.16R
MILWAUKEE/TIMM SUNNY     73  52  46 E6        30.15R
RACINE         PTSUNNY   71  60  68 E10       30.16R
BURLINGTON     MOSUNNY   75  60  57 CALM      30.14R
KENOSHA        MOSUNNY   73  59  61 E9        30.14S
FOND DU LAC    CLOUDY    71  57  61 N3        30.15R
SHEBOYGAN      PTSUNNY   73  56  54 W5        30.15R
WEST BEND      MOSUNNY   72  57  60 N5        30.15R
JUNEAU         CLOUDY    70  58  66 CALM      30.16R
$$

LSZ147-162-270000-
LAKE SUPERIOR

STATION/POSITION TIME  TEMP    WIND        PRES    WAVE
                       AIR SEA DIR/SP/G            HT/PER
                 (UTC) (F)     (DEG/KT/KT) (MB)    (FT/S)
W MID LAKE BUOY  2150   64 69  170/  8/ 10 1020.6R   1
DEVILS ISLAND    2200   67     150/  7/ 10 1020.6F
PORT WING        2200   73     340/  2/  3 1020.0
SAXON HARBOR     2200   69      90/  2/  5 1020.7F
$$

LMZ867-665-643>646-270000-
LAKE MICHIGAN

STATION/POSITION TIME  TEMP    WIND        PRES    WAVE
                       AIR SEA DIR/SP/G            HT/PER
                 (UTC) (F)     (DEG/KT/KT) (MB)    (FT/S)
CHAMBERS ISLAND  2200   71     200/  4/  8 1019.6S
S GREEN BAY BUOY 2030   71 73  200/  8/ 10 1019.5
N MID LAKE BUOY  2150   69 71  210/  8/ 10 1019.4F   1
NORTHPORT PIER   2200   70     150/  6/  9 1019.6S
SISTER BAY       2137   74     290/  8/  8   N/A
ALGOMA LAKESHORE 2230          210/ 12/ 14   N/A
KEWAUNEE LAKESHO 2200   62                 1019.9F
SHEBOYGAN LAKESH 2200   67     180/  3/  4 1020.3R
PORT WASHINGTON  2200   69     110/  1/  2 1021.0
ATWATER BUOY     2200   68     140/  6/  8   N/A
MILWAUKEE LAKESH 2210   68     120/  5/  5   N/A
S MID LAKE BUOY  2150   71 76   60/  6/  8 1020.1F   1
KENOSHA   LAKESH 2200   74     130/  7/  9 1020.0R
$$

TC  - TEMPERATURE IN CELSIUS
VSB - VISIBILITY IN STATUTE MILES
WCI - WIND CHILL INDEX
HX  - HEAT INDEX





USA.gov is the U.S. government's official web portal to all federal, state and local government web resources and services.